IZ3TCG-13 Weather Reports


Display with metric or nautical units.
time (UTC)temp
F
wind
direction
speed
MPH
gust
MPH
rain 1hr
in
rain 24hr
in
rain mn
in
humidity
%
barometer
mb
20260902230803 72 0 0.0 0.0 0.00 0.00 0.00 83 1012.5
20260902230403 72 0 0.0 0.0 0.00 0.00 0.00 83 1012.6
20260902230004 72 90 0.0 2.0 0.00 0.00 0.00 83 1012.5
20260902225603 72 90 0.0 2.0 0.00 0.00 0.00 84 1012.6
20260902225203 72 90 1.0 2.0 0.00 0.00 0.00 84 1012.6
20260902224803 71 0 0.0 0.0 0.00 0.00 0.00 86 1012.6
20260902224403 71 0 0.0 0.0 0.00 0.00 0.00 86 1012.7
20260902224003 72 0 0.0 0.0 0.00 0.00 0.00 86 1012.5
20260902223603 72 0 0.0 0.0 0.00 0.00 0.00 85 1012.6
20260902223203 72 0 0.0 0.0 0.00 0.00 0.00 84 1012.7
20260902222803 72 0 0.0 0.0 0.00 0.00 0.00 84 1012.4
20260902222403 72 0 0.0 0.0 0.00 0.00 0.00 83 1012.4
20260902222004 71 0 0.0 0.0 0.00 0.00 0.00 86 1012.5
20260902221603 71 0 0.0 0.0 0.00 0.00 0.00 86 1012.3
20260902221203 72 0 0.0 0.0 0.00 0.00 0.00 86 1012.3
20260902220803 72 0 0.0 0.0 0.00 0.00 0.00 85 1012.3
20260902220403 72 0 0.0 0.0 0.00 0.00 0.00 85 1012.3
20260902220007 72 0 0.0 0.0 0.00 0.00 0.00 85 1012.2
20260902215603 72 0 0.0 0.0 0.00 0.00 0.00 84 1012.4
20260902215416 72 0 0.0 0.0 0.00 0.00 0.00 84 1012.1
20260902214803 73 0 0.0 0.0 0.00 0.00 0.00 82 1012.0
20260902214403 73 0 0.0 0.0 0.00 0.00 0.00 81 1012.1
20260902214003 73 0 0.0 0.0 0.00 0.00 0.00 82 1012.1
20260902213603 72 0 0.0 0.0 0.00 0.00 0.00 83 1011.9
20260902213203 72 0 0.0 0.0 0.00 0.00 0.00 84 1012.3
20260902212803 72 0 0.0 0.0 0.00 0.00 0.00 84 1012.0
20260902212617 72 0 0.0 0.0 0.00 0.00 0.00 84 1012.0
20260902212003 72 0 0.0 0.0 0.00 0.00 0.00 84 1012.0
20260902211603 72 0 0.0 0.0 0.00 0.00 0.00 84 1011.9
20260902211203 72 0 0.0 0.0 0.00 0.00 0.00 83 1012.1
20260902210803 73 0 0.0 0.0 0.00 0.00 0.00 83 1012.0
20260902210613 73 0 0.0 0.0 0.00 0.00 0.00 82 1011.9
20260902210004 73 0 0.0 0.0 0.00 0.00 0.00 81 1011.9
20260902205603 73 0 0.0 0.0 0.00 0.00 0.00 82 1011.7
20260902205203 74 0 0.0 0.0 0.00 0.00 0.00 81 1012.0
20260902204803 74 0 0.0 0.0 0.00 0.00 0.00 81 1012.0
20260902204403 74 0 0.0 0.0 0.00 0.00 0.00 80 1011.7
20260902204215 74 0 0.0 0.0 0.00 0.00 0.00 79 1011.7
20260902203603 74 90 0.0 2.0 0.00 0.00 0.00 80 1011.8
20260902203203 74 90 0.0 2.0 0.00 0.00 0.00 78 1011.7
20260902202803 74 90 0.0 2.0 0.00 0.00 0.00 80 1011.8
20260902202403 74 0 0.0 0.0 0.00 0.00 0.00 80 1011.6
20260902202003 74 0 0.0 0.0 0.00 0.00 0.00 80 1011.5
20260902201604 75 0 0.0 0.0 0.00 0.00 0.00 80 1011.6
20260902201204 74 0 0.0 0.0 0.00 0.00 0.00 79 1011.4
20260902200803 74 0 0.0 0.0 0.00 0.00 0.00 79 1011.6
20260902200403 74 0 0.0 0.0 0.00 0.00 0.00 80 1011.7
20260902200003 74 0 0.0 0.0 0.00 0.00 0.00 81 1011.4
20260902195603 74 0 0.0 0.0 0.00 0.00 0.00 81 1011.5
20260902195203 74 0 0.0 0.0 0.00 0.00 0.00 82 1011.5
20260902194803 74 0 0.0 0.0 0.00 0.00 0.00 82 1011.7
20260902194616 74 0 0.0 0.0 0.00 0.00 0.00 82 1011.6
20260902194003 75 0 0.0 0.0 0.00 0.00 0.00 81 1011.7
20260902193603 75 0 0.0 0.0 0.00 0.00 0.00 80 1011.6
20260902193203 75 0 0.0 0.0 0.00 0.00 0.00 80 1011.4
20260902192803 76 0 0.0 0.0 0.00 0.00 0.00 79 1011.4
20260902192403 76 0 0.0 0.0 0.00 0.00 0.00 78 1011.5
20260902192004 76 0 0.0 0.0 0.00 0.00 0.00 78 1011.3
20260902191604 76 0 0.0 0.0 0.00 0.00 0.00 78 1011.5
20260902191416 76 0 0.0 0.0 0.00 0.00 0.00 78 1011.5
20260902190803 76 0 0.0 0.0 0.00 0.00 0.00 78 1011.4
20260902190403 76 0 0.0 0.0 0.00 0.00 0.00 78 1011.4
20260902190004 76 90 0.0 2.0 0.00 0.00 0.00 78 1011.4
20260902185603 76 90 0.0 2.0 0.00 0.00 0.00 78 1011.2
20260902185204 76 90 0.0 2.0 0.00 0.00 0.00 77 1011.1
20260902184803 76 90 0.0 2.0 0.00 0.00 0.00 78 1011.1
20260902184403 77 0 0.0 0.0 0.00 0.00 0.00 77 1011.3
20260902184003 77 90 0.0 2.0 0.00 0.00 0.00 77 1011.0
20260902183603 76 90 0.0 2.0 0.00 0.00 0.00 76 1010.9
20260902183203 77 0 0.0 0.0 0.00 0.00 0.00 76 1011.1
20260902182803 78 0 0.0 0.0 0.00 0.00 0.00 75 1011.1
20260902182613 78 0 0.0 0.0 0.00 0.00 0.00 73 1011.0
20260902182004 79 90 0.0 2.0 0.00 0.00 0.00 70 1011.0
20260902181603 80 90 0.0 2.0 0.00 0.00 0.00 70 1010.8
20260902181203 80 90 1.0 2.0 0.00 0.00 0.00 68 1010.7
20260902180803 80 90 1.0 2.0 0.00 0.00 0.00 67 1010.7
20260902180615 80 90 0.0 2.0 0.00 0.00 0.00 68 1010.6
20260902180006 80 90 2.0 2.0 0.00 0.00 0.00 68 1010.6
20260902175603 80 90 0.0 2.0 0.00 0.00 0.00 68 1010.7
20260902175203 80 90 0.0 2.0 0.00 0.00 0.00 68 1010.6
20260902175013 80 90 0.0 2.0 0.00 0.00 0.00 68 1010.6
20260902174617 81 90 0.0 2.0 0.00 0.00 0.00 68 1010.5
20260902174003 81 90 0.0 4.0 0.00 0.00 0.00 66 1010.5
20260902173603 82 90 0.0 4.0 0.00 0.00 0.00 64 1010.5
20260902173203 83 88 2.0 4.0 0.00 0.00 0.00 62 1010.7
20260902172803 82 87 2.0 4.0 0.00 0.00 0.00 62 1010.5
20260902172403 82 90 2.0 2.0 0.00 0.00 0.00 63 1010.3
20260902172213 83 93 0.0 2.0 0.00 0.00 0.00 63 1010.5
20260902171603 83 92 0.0 4.0 0.00 0.00 0.00 61 1010.7
20260902171417 83 92 1.0 4.0 0.00 0.00 0.00 61 1010.6
20260902170803 83 85 1.0 4.0 0.00 0.00 0.00 62 1010.6
20260902170616 84 78 0.0 4.0 0.00 0.00 0.00 62 1010.7
20260902170003 84 71 1.0 4.0 0.00 0.00 0.00 61 1010.7
20260902165603 85 101 2.0 4.0 0.00 0.00 0.00 59 1010.8
20260902165203 85 149 2.0 4.0 0.00 0.00 0.00 56 1010.7
20260902164803 86 167 1.0 2.0 0.00 0.00 0.00 54 1010.6
20260902164403 86 145 1.0 2.0 0.00 0.00 0.00 55 1010.5
20260902164003 87 135 0.0 2.0 0.00 0.00 0.00 52 1010.6
20260902163816 87 133 1.0 2.0 0.00 0.00 0.00 52 1010.5
20260902163203 87 158 2.0 4.0 0.00 0.00 0.00 51 1010.4
20260902162803 88 158 2.0 4.0 0.00 0.00 0.00 50 1010.6
20260902162403 88 157 2.0 2.0 0.00 0.00 0.00 49 1010.5
20260902162214 89 154 0.0 2.0 0.00 0.00 0.00 50 1010.5
20260902161603 89 154 1.0 4.0 0.00 0.00 0.00 48 1010.7
20260902161203 90 156 2.0 4.0 0.00 0.00 0.00 48 1010.7
20260902160803 90 160 0.0 2.0 0.00 0.00 0.00 47 1010.6
20260902160403 89 154 2.0 2.0 0.00 0.00 0.00 48 1010.8
20260902160004 91 149 1.0 2.0 0.00 0.00 0.00 47 1010.6
20260902155603 90 112 0.0 2.0 0.00 0.00 0.00 48 1010.4
20260902155415 89 107 0.0 2.0 0.00 0.00 0.00 47 1010.8
20260902154803 89 98 2.0 2.0 0.00 0.00 0.00 49 1010.4
20260902154613 89 106 2.0 2.0 0.00 0.00 0.00 49 1010.7
20260902154003 90 125 0.0 2.0 0.00 0.00 0.00 48 1010.7
20260902153603 91 141 0.0 2.0 0.00 0.00 0.00 48 1010.6
20260902153417 92 168 0.0 2.0 0.00 0.00 0.00 46 1010.7
20260902152803 92 220 0.0 4.0 0.00 0.00 0.00 44 1010.9
20260902152403 90 211 1.0 4.0 0.00 0.00 0.00 44 1010.8
20260902152003 90 185 2.0 4.0 0.00 0.00 0.00 46 1010.7
20260902151814 90 181 2.0 4.0 0.00 0.00 0.00 46 1010.8
20260902151203 92 215 2.0 4.0 0.00 0.00 0.00 45 1010.8
20260902150803 91 224 1.0 4.0 0.00 0.00 0.00 44 1010.9
20260902150403 92 203 2.0 6.0 0.00 0.00 0.00 45 1010.9
20260902150003 91 231 1.0 6.0 0.00 0.00 0.00 47 1010.9
20260902145603 90 227 2.0 6.0 0.00 0.00 0.00 49 1010.8
20260902145203 92 199 2.0 4.0 0.00 0.00 0.00 45 1011.0
20260902144803 92 148 2.0 4.0 0.00 0.00 0.00 44 1011.1
20260902144403 92 235 1.0 4.0 0.00 0.00 0.00 47 1011.0
20260902144213 92 247 2.0 6.0 0.00 0.00 0.00 46 1011.1
20260902143603 90 233 2.0 6.0 0.00 0.00 0.00 47 1011.3
20260902143203 91 211 2.0 6.0 0.00 0.00 0.00 45 1011.2
20260902142803 91 236 1.0 4.0 0.00 0.00 0.00 46 1011.3
20260902142403 91 219 2.0 4.0 0.00 0.00 0.00 47 1011.2
20260902142003 91 184 1.0 4.0 0.00 0.00 0.00 44 1011.3
20260902141603 92 130 2.0 4.0 0.00 0.00 0.00 48 1011.5
20260902141414 92 106 2.0 4.0 0.00 0.00 0.00 46 1011.3
20260902140803 90 91 2.0 4.0 0.00 0.00 0.00 47 1011.6
20260902140403 90 126 1.0 4.0 0.00 0.00 0.00 49 1011.4
20260902140003 87 133 0.0 4.0 0.00 0.00 0.00 53 1011.5
20260902135816 87 135 0.0 4.0 0.00 0.00 0.00 51 1011.5
20260902135203 90 118 2.0 4.0 0.00 0.00 0.00 47 1011.5
20260902134803 90 90 1.0 2.0 0.00 0.00 0.00 52 1011.4
20260902134403 90 90 1.0 2.0 0.00 0.00 0.00 52 1011.4
20260902134003 90 90 2.0 2.0 0.00 0.00 0.00 48 1011.4
20260902133603 90 113 2.0 2.0 0.00 0.00 0.00 48 1011.5
20260902133204 90 126 2.0 2.0 0.00 0.00 0.00 48 1011.4
20260902132803 90 113 1.0 2.0 0.00 0.00 0.00 46 1011.8
20260902132404 90 96 1.0 2.0 0.00 0.00 0.00 49 1011.5
20260902132003 89 142 1.0 2.0 0.00 0.00 0.00 48 1011.9
20260902131603 91 198 1.0 4.0 0.00 0.00 0.00 43 1011.7
20260902131203 89 185 0.0 4.0 0.00 0.00 0.00 47 1011.9
20260902130803 89 188 2.0 4.0 0.00 0.00 0.00 47 1011.7
20260902130403 91 243 3.0 4.0 0.00 0.00 0.00 46 1011.7
20260902130004 90 262 0.0 4.0 0.00 0.00 0.00 46 1011.7
20260902125603 92 317 3.0 4.0 0.00 0.00 0.00 45 1011.7
20260902125203 92 17 1.0 4.0 0.00 0.00 0.00 43 1011.6
20260902124803 90 289 2.0 4.0 0.00 0.00 0.00 45 1011.8
20260902124403 90 245 2.0 4.0 0.00 0.00 0.00 44 1011.9
20260902124003 91 225 2.0 4.0 0.00 0.00 0.00 44 1011.9
20260902123603 90 183 0.0 4.0 0.00 0.00 0.00 44 1012.0
20260902123203 89 185 2.0 4.0 0.00 0.00 0.00 44 1012.1
20260902122803 89 210 2.0 4.0 0.00 0.00 0.00 48 1012.1
20260902122403 89 276 1.0 4.0 0.00 0.00 0.00 49 1012.3
20260902122003 90 269 2.0 4.0 0.00 0.00 0.00 45 1012.2
20260902121603 90 237 1.0 4.0 0.00 0.00 0.00 44 1012.3
20260902121203 90 210 2.0 4.0 0.00 0.00 0.00 45 1012.3
20260902120803 91 161 2.0 4.0 0.00 0.00 0.00 45 1012.3
20260902120403 90 124 1.0 4.0 0.00 0.00 0.00 47 1012.2
20260902120004 90 110 2.0 4.0 0.00 0.00 0.00 47 1012.5
20260902115603 89 87 2.0 4.0 0.00 0.00 0.00 48 1012.1
20260902115203 87 74 2.0 4.0 0.00 0.00 0.00 50 1012.1
20260902114803 89 84 2.0 4.0 0.00 0.00 0.00 48 1012.2
20260902114403 92 272 1.0 4.0 0.00 0.00 0.00 43 1012.6
20260902114215 91 251 2.0 4.0 0.00 0.00 0.00 46 1012.5
20260902113603 90 240 2.0 4.0 0.00 0.00 0.00 47 1012.5
20260902113414 90 246 2.0 4.0 0.00 0.00 0.00 47 1012.6
20260902112803 91 303 1.0 4.0 0.00 0.00 0.00 45 1012.8
20260902112403 90 80 1.0 4.0 0.00 0.00 0.00 45 1012.6
20260902112003 90 96 2.0 4.0 0.00 0.00 0.00 46 1013.0
20260902111817 89 97 0.0 4.0 0.00 0.00 0.00 51 1012.8
20260902111203 89 91 1.0 4.0 0.00 0.00 0.00 46 1012.8
20260902110803 89 95 1.0 4.0 0.00 0.00 0.00 47 1012.7
20260902110403 89 79 2.0 4.0 0.00 0.00 0.00 49 1012.9
20260902110214 88 74 0.0 4.0 0.00 0.00 0.00 47 1012.8
20260902105603 90 88 2.0 4.0 0.00 0.00 0.00 50 1012.9
20260902105203 90 95 2.0 4.0 0.00 0.00 0.00 49 1013.0
20260902104803 88 91 1.0 4.0 0.00 0.00 0.00 50 1013.0
20260902104403 88 103 2.0 4.0 0.00 0.00 0.00 47 1013.1
20260902104003 86 113 1.0 2.0 0.00 0.00 0.00 52 1013.2
20260902103603 87 115 2.0 2.0 0.00 0.00 0.00 53 1013.2
20260902103203 88 114 1.0 2.0 0.00 0.00 0.00 49 1013.1
20260902102803 88 103 1.0 2.0 0.00 0.00 0.00 48 1013.4
20260902102403 90 124 2.0 2.0 0.00 0.00 0.00 47 1013.1
20260902102003 88 112 0.0 4.0 0.00 0.00 0.00 47 1013.1
20260902101817 88 112 1.0 4.0 0.00 0.00 0.00 47 1013.5
20260902101203 88 141 3.0 4.0 0.00 0.00 0.00 49 1013.1
20260902101016 88 151 2.0 4.0 0.00 0.00 0.00 51 1013.2
20260902100615 87 170 1.0 4.0 0.00 0.00 0.00 51 1013.2
20260902095603 87 51 0.0 4.0 0.00 0.00 0.00 47 1013.7
20260902095203 87 57 2.0 4.0 0.00 0.00 0.00 50 1013.5
20260902094803 87 31 2.0 4.0 0.00 0.00 0.00 49 1013.6
20260902094403 88 350 2.0 4.0 0.00 0.00 0.00 48 1013.7
20260902094003 89 359 2.0 4.0 0.00 0.00 0.00 49 1013.7
20260902093603 87 16 2.0 6.0 0.00 0.00 0.00 48 1013.7
20260902093203 86 44 0.0 6.0 0.00 0.00 0.00 49 1013.7
20260902093015 86 46 1.0 6.0 0.00 0.00 0.00 49 1013.7
20260902092403 87 54 1.0 4.0 0.00 0.00 0.00 51 1013.7
20260902092213 87 36 2.0 4.0 0.00 0.00 0.00 51 1013.9
20260902091813 83 45 2.0 4.0 0.00 0.00 0.00 54 1013.9
20260902091203 83 45 2.0 4.0 0.00 0.00 0.00 54 1013.8
20260902090803 83 45 2.0 4.0 0.00 0.00 0.00 54 1013.6
20260902090404 83 45 2.0 4.0 0.00 0.00 0.00 54 1013.6
20260902090004 83 45 2.0 4.0 0.00 0.00 0.00 54 1013.9
20260902085603 83 45 2.0 4.0 0.00 0.00 0.00 54 1013.7
20260902085203 83 45 2.0 4.0 0.00 0.00 0.00 54 1014.1
20260902084803 83 45 2.0 4.0 0.00 0.00 0.00 54 1013.7
20260902084403 83 45 2.0 4.0 0.00 0.00 0.00 54 1013.7
20260902084003 83 45 2.0 4.0 0.00 0.00 0.00 54 1013.7
20260902083603 83 45 2.0 4.0 0.00 0.00 0.00 54 1013.7
20260902083203 83 45 2.0 4.0 0.00 0.00 0.00 54 1013.8
20260902082803 83 45 2.0 4.0 0.00 0.00 0.00 54 1013.6
20260902082403 83 45 2.0 4.0 0.00 0.00 0.00 54 1013.5
20260902082003 83 34 2.0 4.0 0.00 0.00 0.00 54 1013.7
20260902081603 83 1 2.0 4.0 0.00 0.00 0.00 54 1013.6
20260902081203 82 340 1.0 4.0 0.00 0.00 0.00 55 1013.3
20260902080803 82 354 2.0 4.0 0.00 0.00 0.00 55 1013.4
20260902080403 82 3 2.0 4.0 0.00 0.00 0.00 56 1013.6
20260902080003 82 5 2.0 6.0 0.00 0.00 0.00 56 1013.6
20260902075604 81 1 2.0 6.0 0.00 0.00 0.00 57 1013.4
20260902075204 82 346 2.0 6.0 0.00 0.00 0.00 56 1013.6
20260902074803 82 324 2.0 6.0 0.00 0.00 0.00 56 1013.4
20260902074403 82 320 2.0 4.0 0.00 0.00 0.00 57 1013.6
20260902074003 82 335 1.0 4.0 0.00 0.00 0.00 56 1013.6
20260902073817 82 334 2.0 4.0 0.00 0.00 0.00 56 1013.2
20260902073203 80 7 2.0 6.0 0.00 0.00 0.00 58 1013.2
20260902072803 81 29 2.0 6.0 0.00 0.00 0.00 58 1013.1
20260902072615 80 19 2.0 6.0 0.00 0.00 0.00 59 1013.3
20260902072003 80 6 2.0 4.0 0.00 0.00 0.00 59 1013.3
20260902071603 81 4 2.0 8.0 0.00 0.00 0.00 58 1013.1
20260902071203 80 350 1.0 8.0 0.00 0.00 0.00 60 1013.6
20260902070803 79 345 2.0 8.0 0.00 0.00 0.00 61 1013.3
20260902070403 79 324 1.0 4.0 0.00 0.00 0.00 63 1013.2
20260902070217 79 329 1.0 4.0 0.00 0.00 0.00 63 1013.1
20260902065603 78 312 1.0 4.0 0.00 0.00 0.00 64 1013.1
20260902065203 77 293 0.0 6.0 0.00 0.00 0.00 66 1013.4
20260902064803 77 290 1.0 6.0 0.00 0.00 0.00 67 1013.1
20260902064403 76 280 2.0 6.0 0.00 0.00 0.00 67 1013.3
20260902064003 77 279 2.0 4.0 0.00 0.00 0.00 69 1013.1
20260902063603 76 276 2.0 4.0 0.00 0.00 0.00 70 1013.2
20260902063203 76 273 0.0 4.0 0.00 0.00 0.00 71 1013.2
20260902062803 75 283 0.0 4.0 0.00 0.00 0.00 72 1013.1
20260902062403 75 282 1.0 4.0 0.00 0.00 0.00 74 1013.0
20260902062003 74 275 1.0 2.0 0.00 0.00 0.00 74 1013.3
20260902061203 72 270 0.0 2.0 0.00 0.00 0.00 79 1013.1
20260902060803 72 0 0.0 0.0 0.00 0.00 0.00 83 1012.8
20260902060613 72 0 0.0 0.0 0.00 0.00 0.00 83 1013.1
20260902060003 71 270 0.0 2.0 0.00 0.00 0.00 84 1012.9
20260902055603 70 270 0.0 2.0 0.00 0.00 0.00 84 1013.0
20260902055203 69 270 1.0 2.0 0.00 0.00 0.00 85 1012.9
20260902054803 69 270 1.0 2.0 0.00 0.00 0.00 85 1012.9
20260902054615 69 270 2.0 2.0 0.00 0.00 0.00 86 1012.8
20260902054214 68 270 2.0 2.0 0.00 0.00 0.00 87 1012.8
20260902053603 67 0 0.0 0.0 0.00 0.00 0.00 90 1013.2
20260902053203 67 0 0.0 0.0 0.00 0.00 0.00 90 1012.8
20260902052803 67 0 0.0 0.0 0.00 0.00 0.00 90 1012.7
20260902052403 67 0 0.0 0.0 0.00 0.00 0.00 91 1012.7
20260902052003 66 0 0.0 0.0 0.00 0.00 0.00 91 1012.9
20260902051603 66 0 0.0 0.0 0.00 0.00 0.00 92 1012.7
20260902051203 66 0 0.0 0.0 0.00 0.00 0.00 92 1012.6
20260902050803 65 0 0.0 0.0 0.00 0.00 0.00 92 1012.6
20260902050403 65 0 0.0 0.0 0.00 0.00 0.00 93 1012.7
20260902050006 65 0 0.0 0.0 0.00 0.00 0.00 93 1012.8
20260902045603 65 0 0.0 0.0 0.00 0.00 0.00 93 1012.8
20260902045417 65 0 0.0 0.0 0.00 0.00 0.00 92 1012.9
20260902045016 65 0 0.0 0.0 0.00 0.00 0.00 92 1012.8
20260902044403 65 0 0.0 0.0 0.00 0.00 0.00 92 1012.9
20260902044003 65 0 0.0 0.0 0.00 0.00 0.00 92 1012.8
20260902043603 65 0 0.0 0.0 0.00 0.00 0.00 91 1012.9
20260902043203 65 0 0.0 0.0 0.00 0.00 0.00 91 1013.0
20260902042803 65 0 0.0 0.0 0.00 0.00 0.00 91 1012.6
20260902042403 65 0 0.0 0.0 0.00 0.00 0.00 91 1012.9
20260902042003 65 0 0.0 0.0 0.00 0.00 0.00 91 1012.7
20260902041603 66 0 0.0 0.0 0.00 0.00 0.00 91 1012.5
20260902041415 66 0 0.0 0.0 0.00 0.00 0.00 91 1013.0
20260902040803 66 0 0.0 0.0 0.00 0.00 0.00 90 1012.8
20260902040614 66 0 0.0 0.0 0.00 0.00 0.00 90 1012.9
20260902040214 66 270 0.0 2.0 0.00 0.00 0.00 89 1013.0
20260902035813 67 270 0.0 2.0 0.00 0.00 0.00 89 1012.6
20260902035203 67 0 0.0 0.0 0.00 0.00 0.00 89 1012.7
20260902035017 67 0 0.0 0.0 0.00 0.00 0.00 88 1012.8
20260902034403 67 0 0.0 0.0 0.00 0.00 0.00 89 1012.7
20260902034003 67 0 0.0 0.0 0.00 0.00 0.00 89 1012.6
20260902033815 67 0 0.0 0.0 0.00 0.00 0.00 89 1012.6
20260902033203 67 270 0.0 2.0 0.00 0.00 0.00 89 1012.7
20260902032803 67 270 0.0 2.0 0.00 0.00 0.00 88 1012.7
20260902032613 67 270 0.0 2.0 0.00 0.00 0.00 88 1012.8
20260902032003 67 0 0.0 0.0 0.00 0.00 0.00 88 1012.4
20260902031603 67 0 0.0 0.0 0.00 0.00 0.00 88 1012.4
20260902031416 67 0 0.0 0.0 0.00 0.00 0.00 88 1012.9
20260902031016 67 0 0.0 0.0 0.00 0.00 0.00 89 1012.7
20260902030615 67 0 0.0 0.0 0.00 0.00 0.00 89 1012.7
20260902030004 66 0 0.0 0.0 0.00 0.00 0.00 91 1012.5
20260902025603 66 0 0.0 0.0 0.00 0.00 0.00 91 1012.6
20260902025203 66 0 0.0 0.0 0.00 0.00 0.00 91 1012.5
20260902024803 66 0 0.0 0.0 0.00 0.00 0.00 90 1012.6
20260902024403 66 0 0.0 0.0 0.00 0.00 0.00 90 1012.6
20260902024216 66 0 0.0 0.0 0.00 0.00 0.00 90 1012.7
20260902023603 67 0 0.0 0.0 0.00 0.00 0.00 89 1012.6
20260902023203 67 270 0.0 2.0 0.00 0.00 0.00 89 1012.6
20260902022803 67 270 0.0 2.0 0.00 0.00 0.00 88 1012.8
20260902022403 68 270 0.0 2.0 0.00 0.00 0.00 88 1012.6
20260902022003 67 270 1.0 2.0 0.00 0.00 0.00 88 1012.7
20260902021604 67 270 1.0 2.0 0.00 0.00 0.00 90 1012.8
20260902021203 66 0 0.0 0.0 0.00 0.00 0.00 90 1012.8
20260902020803 66 0 0.0 0.0 0.00 0.00 0.00 90 1012.7
20260902020403 66 0 0.0 0.0 0.00 0.00 0.00 90 1012.5
20260902020215 66 0 0.0 0.0 0.00 0.00 0.00 90 1012.6
20260902015603 67 0 0.0 0.0 0.00 0.00 0.00 89 1012.7
20260902015203 67 0 0.0 0.0 0.00 0.00 0.00 88 1012.4
20260902014803 68 0 0.0 0.0 0.00 0.00 0.00 87 1012.7
20260902014617 68 0 0.0 0.0 0.00 0.00 0.00 87 1012.6
20260902014003 68 0 0.0 0.0 0.00 0.00 0.00 86 1012.5
20260902013603 68 0 0.0 0.0 0.00 0.00 0.00 87 1012.7
20260902013203 67 0 0.0 0.0 0.00 0.00 0.00 88 1012.3
20260902012803 68 0 0.0 0.0 0.00 0.00 0.00 88 1012.4
20260902012403 68 0 0.0 0.0 0.00 0.00 0.00 87 1012.6
20260902012003 68 0 0.0 0.0 0.00 0.00 0.00 86 1012.3
20260902011603 69 0 0.0 0.0 0.00 0.00 0.00 85 1012.6
20260902011203 70 270 0.0 2.0 0.00 0.00 0.00 84 1012.5
20260902011017 70 270 0.0 2.0 0.00 0.00 0.00 83 1012.7
20260902010403 71 270 0.0 2.0 0.00 0.00 0.00 81 1012.6
20260902010004 70 270 0.0 2.0 0.00 0.00 0.00 81 1012.7
20260902005603 70 270 0.0 2.0 0.00 0.00 0.00 82 1012.8
20260902005203 69 0 0.0 0.0 0.00 0.00 0.00 83 1012.9
20260902004803 70 270 0.0 2.0 0.00 0.00 0.00 83 1012.6
20260902004403 71 281 0.0 2.0 0.00 0.00 0.00 82 1013.1
20260902004003 71 281 0.0 2.0 0.00 0.00 0.00 80 1013.0
20260902003603 71 0 0.0 0.0 0.00 0.00 0.00 81 1012.9
20260902003203 71 0 0.0 0.0 0.00 0.00 0.00 81 1012.8
20260902002803 70 0 0.0 0.0 0.00 0.00 0.00 81 1013.0
20260902002403 70 0 0.0 0.0 0.00 0.00 0.00 81 1013.0
20260902002214 70 0 0.0 0.0 0.00 0.00 0.00 81 1013.1
20260902001603 70 0 0.0 0.0 0.00 0.00 0.00 82 1012.9
20260902001203 70 0 0.0 0.0 0.00 0.00 0.00 82 1012.8
20260902000803 69 0 0.0 0.0 0.00 0.00 0.00 83 1012.6
20260902000403 69 0 0.0 0.0 0.00 0.00 0.00 83 1013.0
20260902000004 69 0 0.0 0.0 0.00 0.00 0.00 83 1012.8
20260901235603 69 0 0.0 0.0 0.00 0.00 0.00 85 1012.9
20260901235203 68 0 0.0 0.0 0.00 0.00 0.00 87 1013.0
20260901234803 68 0 0.0 0.0 0.00 0.00 0.00 87 1012.8
20260901234403 68 0 0.0 0.0 0.00 0.00 0.00 87 1012.8
20260901234003 68 0 0.0 0.0 0.00 0.00 0.00 87 1012.9
20260901233817 68 0 0.0 0.0 0.00 0.00 0.00 87 1012.7
20260901233203 69 0 0.0 0.0 0.00 0.00 0.00 86 1012.7
20260901232803 69 0 0.0 0.0 0.00 0.00 0.00 86 1012.9
20260901232403 69 0 0.0 0.0 0.00 0.00 0.00 85 1012.5
20260901232003 69 0 0.0 0.0 0.00 0.00 0.00 84 1012.8
20260901231604 69 0 0.0 0.0 0.00 0.00 0.00 84 1012.8
20260901231203 70 0 0.0 0.0 0.00 0.00 0.00 84 1012.4